When you browse on this site, cookies collect data to enhance your experience and personalize the content and advertising you see.
Visit our Privacy Policy to learn more. By continuing to use the site, you agree to this use of cookies and data.
  • En España
  • Lista de países
  • Para 7 días
  • Temperatura del agua
  • El tiempo en el mapa
  • Informadores
  • user-avatar
    Iniciar sesión

    Tiempo cada hora Ngozi

    Hoy, 28 Febrero, Viernes

    Tiempo Temperatura Precipitaciones Viento Presión Humedad
    00:00 +18°C° 0.1 mm 1 mps 618 mmHg 93%
    01:00 +18°C° 0.1 mm 1 mps 618 mmHg 94%
    02:00 +16°C° 0 mm 0 mps 617 mmHg 95%
    03:00 +16°C° 0.3 mm 0 mps 617 mmHg 94%
    04:00 +16°C° 0.3 mm 0 mps 617 mmHg 94%
    05:00 +16°C° 0.3 mm 0 mps 617 mmHg 94%
    06:00 +16°C° 0.5 mm 0 mps 618 mmHg 94%
    07:00 +17°C° 0.5 mm 0 mps 619 mmHg 93%
    08:00 +18°C° 0.5 mm 0 mps 620 mmHg 93%
    09:00 +20°C° 1.4 mm 1 mps 620 mmHg 91%
    10:00 +21°C° 1.4 mm 1 mps 620 mmHg 89%
    11:00 +21°C° 1.4 mm 2 mps 620 mmHg 88%
    12:00 +20°C° 1.5 mm 2 mps 620 mmHg 90%
    13:00 +21°C° 1.5 mm 1 mps 619 mmHg 91%
    14:00 +20°C° 1.5 mm 1 mps 619 mmHg 93%
    15:00 +19°C° 2.2 mm 1 mps 618 mmHg 95%
    16:00 +19°C° 2.2 mm 1 mps 618 mmHg 97%
    17:00 +18°C° 2.2 mm 1 mps 617 mmHg 98%
    18:00 +18°C° 2.6 mm 1 mps 618 mmHg 98%
    19:00 +18°C° 2.6 mm 1 mps 618 mmHg 98%
    20:00 +16°C° 2.6 mm 1 mps 619 mmHg 98%
    21:00 +16°C° 0.1 mm 1 mps 618 mmHg 97%
    22:00 +15°C° 0.1 mm 0 mps 618 mmHg 97%
    23:00 +15°C° 0.1 mm 0 mps 618 mmHg 97%

    Mañana, 29 Febrero, Sábado

    Tiempo Temperatura Precipitaciones Viento Presión Humedad
    00:00 +15°C° 0 mm 0 mps 618 mmHg 96%
    01:00 +15°C° 0 mm 0 mps 618 mmHg 96%
    02:00 +15°C° 0 mm 0 mps 617 mmHg 95%
    03:00 +14°C° 0 mm 0 mps 617 mmHg 96%
    04:00 +14°C° 0 mm 0 mps 617 mmHg 96%
    05:00 +14°C° 0 mm 0 mps 617 mmHg 96%
    06:00 +15°C° 0 mm 0 mps 618 mmHg 94%
    07:00 +16°C° 0 mm 0 mps 619 mmHg 92%
    08:00 +17°C° 0 mm 0 mps 619 mmHg 90%
    09:00 +19°C° 0 mm 0 mps 620 mmHg 82%
    10:00 +22°C° 0 mm 0 mps 621 mmHg 74%
    11:00 +24°C° 0 mm 0 mps 621 mmHg 66%
    12:00 +24°C° 0.5 mm 0 mps 621 mmHg 67%
    13:00 +26°C° 0.5 mm 1 mps 620 mmHg 67%
    14:00 +26°C° 0.5 mm 1 mps 619 mmHg 68%
    15:00 +25°C° 0.8 mm 1 mps 618 mmHg 72%
    16:00 +24°C° 0.8 mm 1 mps 618 mmHg 76%
    17:00 +22°C° 0.8 mm 0 mps 617 mmHg 81%
    18:00 +20°C° 1 mm 0 mps 618 mmHg 84%
    19:00 +18°C° 1 mm 0 mps 618 mmHg 87%
    20:00 +17°C° 1 mm 0 mps 618 mmHg 90%
    21:00 +16°C° 0 mm 0 mps 618 mmHg 91%
    22:00 +18°C° 0 mm 1 mps 618 mmHg 92%
    23:00 +18°C° 0 mm 1 mps 618 mmHg 92%

    Pasado mañana, 1 Marzo, Domingo

    Tiempo Temperatura Precipitaciones Viento Presión Humedad
    00:00 +16°C° 0.1 mm 1 mps 618 mmHg 93%
    01:00 +15°C° 0.1 mm 0 mps 617 mmHg 93%
    02:00 +15°C° 0.1 mm 0 mps 617 mmHg 93%
    03:00 +15°C° 0.1 mm 0 mps 617 mmHg 94%
    04:00 +15°C° 0.1 mm 0 mps 617 mmHg 94%
    05:00 +14°C° 0.1 mm 0 mps 617 mmHg 94%
    06:00 +16°C° 0 mm 0 mps 618 mmHg 92%
    07:00 +17°C° 0 mm 0 mps 619 mmHg 90%
    08:00 +18°C° 0 mm 0 mps 619 mmHg 88%
    09:00 +20°C° 0.7 mm 0 mps 620 mmHg 83%
    10:00 +22°C° 0.7 mm 0 mps 620 mmHg 79%
    11:00 +23°C° 0.7 mm 0 mps 620 mmHg 74%
    12:00 +24°C° 0.9 mm 0 mps 620 mmHg 71%
    13:00 +24°C° 0.9 mm 0 mps 619 mmHg 68%
    14:00 +26°C° 0.9 mm 1 mps 619 mmHg 65%
    15:00 +23°C° 0.8 mm 0 mps 618 mmHg 72%
    16:00 +22°C° 0.8 mm 0 mps 618 mmHg 79%
    17:00 +21°C° 0.8 mm 0 mps 617 mmHg 86%
    18:00 +22°C° 0.6 mm 1 mps 617 mmHg 88%
    19:00 +20°C° 0.6 mm 1 mps 617 mmHg 89%
    20:00 +19°C° 0.6 mm 1 mps 617 mmHg 91%
    21:00 +19°C° 0.5 mm 1 mps 618 mmHg 91%
    22:00 +19°C° 0.5 mm 1 mps 618 mmHg 92%
    23:00 +16°C° 0.5 mm 0 mps 618 mmHg 92%

    2 Marzo, Lunes

    Tiempo Temperatura Precipitaciones Viento Presión Humedad
    00:00 +16°C° 0.4 mm 0 mps 618 mmHg 93%
    01:00 +16°C° 0.4 mm 0 mps 618 mmHg 94%
    02:00 +15°C° 0.4 mm 0 mps 617 mmHg 94%
    03:00 +15°C° 0.6 mm 0 mps 617 mmHg 95%
    04:00 +15°C° 0.6 mm 0 mps 618 mmHg 96%
    05:00 +16°C° 0.6 mm 1 mps 618 mmHg 96%
    06:00 +16°C° 1 mm 0 mps 618 mmHg 96%
    07:00 +16°C° 1 mm 0 mps 619 mmHg 96%
    08:00 +16°C° 1 mm 0 mps 619 mmHg 96%
    09:00 +19°C° 0.4 mm 1 mps 619 mmHg 95%
    10:00 +19°C° 0.4 mm 1 mps 620 mmHg 93%
    11:00 +20°C° 0.4 mm 1 mps 620 mmHg 92%
    12:00 +21°C° 0.7 mm 1 mps 620 mmHg 86%
    13:00 +21°C° 0.7 mm 2 mps 619 mmHg 80%
    14:00 +23°C° 0.7 mm 2 mps 619 mmHg 75%
    15:00 +21°C° 0.8 mm 2 mps 619 mmHg 80%
    16:00 +22°C° 0.8 mm 1 mps 619 mmHg 84%
    17:00 +21°C° 0.8 mm 1 mps 618 mmHg 89%
    18:00 +20°C° 0.9 mm 1 mps 618 mmHg 92%
    19:00 +19°C° 0.9 mm 1 mps 619 mmHg 94%
    20:00 +18°C° 0.9 mm 1 mps 619 mmHg 97%
    21:00 +16°C° 0.1 mm 1 mps 619 mmHg 96%
    22:00 +16°C° 0.1 mm 1 mps 619 mmHg 96%
    23:00 +16°C° 0.1 mm 1 mps 619 mmHg 96%

    3 Marzo, Martes

    Tiempo Temperatura Precipitaciones Viento Presión Humedad
    00:00 +16°C° 0 mm 1 mps 619 mmHg 95%
    01:00 +16°C° 0 mm 1 mps 619 mmHg 94%
    02:00 +16°C° 0 mm 1 mps 618 mmHg 94%
    03:00 +15°C° 0 mm 0 mps 618 mmHg 93%
    04:00 +15°C° 0 mm 0 mps 618 mmHg 92%
    05:00 +15°C° 0 mm 0 mps 618 mmHg 91%
    06:00 +16°C° 0 mm 0 mps 619 mmHg 91%
    07:00 +16°C° 0 mm 0 mps 619 mmHg 90%
    08:00 +17°C° 0 mm 0 mps 620 mmHg 89%
    09:00 +18°C° 0.2 mm 0 mps 620 mmHg 87%
    10:00 +18°C° 0.2 mm 0 mps 620 mmHg 85%
    11:00 +21°C° 0.2 mm 1 mps 620 mmHg 83%
    12:00 +21°C° 0.4 mm 1 mps 620 mmHg 82%
    13:00 +21°C° 0.4 mm 1 mps 619 mmHg 81%
    14:00 +22°C° 0.4 mm 1 mps 618 mmHg 81%
    15:00 +21°C° 0.2 mm 1 mps 618 mmHg 82%
    16:00 +21°C° 0.2 mm 1 mps 618 mmHg 83%
    17:00 +19°C° 0.2 mm 0 mps 618 mmHg 85%
    18:00 +18°C° 0 mm 0 mps 618 mmHg 86%
    19:00 +17°C° 0 mm 0 mps 618 mmHg 87%
    20:00 +16°C° 0 mm 0 mps 618 mmHg 88%
    21:00 +16°C° 0 mm 0 mps 619 mmHg 87%
    22:00 +16°C° 0 mm 0 mps 619 mmHg 86%
    23:00 +18°C° 0 mm 1 mps 619 mmHg 86%

    4 Marzo, Miércoles

    Tiempo Temperatura Precipitaciones Viento Presión Humedad
    00:00 +18°C° 0 mm 1 mps 619 mmHg 87%
    01:00 +15°C° 0 mm 0 mps 619 mmHg 87%
    02:00 +15°C° 0 mm 0 mps 618 mmHg 88%
    03:00 +15°C° 0 mm 0 mps 618 mmHg 89%
    04:00 +14°C° 0 mm 0 mps 618 mmHg 90%
    05:00 +14°C° 0 mm 0 mps 618 mmHg 91%
    06:00 +16°C° 0 mm 1 mps 619 mmHg 90%
    07:00 +18°C° 0 mm 1 mps 620 mmHg 89%
    08:00 +19°C° 0 mm 1 mps 621 mmHg 88%
    09:00 +19°C° 0.6 mm 2 mps 621 mmHg 86%
    10:00 +20°C° 0.6 mm 2 mps 621 mmHg 85%
    11:00 +21°C° 0.6 mm 2 mps 621 mmHg 84%
    12:00 +21°C° 1.3 mm 2 mps 621 mmHg 85%
    13:00 +21°C° 1.3 mm 2 mps 620 mmHg 86%
    14:00 +22°C° 1.3 mm 1 mps 619 mmHg 87%
    15:00 +22°C° 0.8 mm 1 mps 619 mmHg 87%
    16:00 +22°C° 0.8 mm 1 mps 618 mmHg 87%
    17:00 +22°C° 0.8 mm 1 mps 618 mmHg 86%
    18:00 +20°C° 0.1 mm 1 mps 618 mmHg 88%
    19:00 +19°C° 0.1 mm 1 mps 618 mmHg 89%
    20:00 +18°C° 0.1 mm 1 mps 618 mmHg 90%
    21:00 +18°C° 0 mm 1 mps 618 mmHg 90%
    22:00 +18°C° 0 mm 1 mps 618 mmHg 90%
    23:00 +16°C° 0 mm 0 mps 619 mmHg 90%
    Mostrar más